STARLINK-1023

Last updated on Thu Dec 12 2019 00:02:03 GMT+0000 (Coordinated Universal Time)

1 44728U 19074R 19345.25001157 -.00037499 00000-0 -26336-3 0 9996 2 44728 53.0096 23.1719 0001780 25.3431 297.3123 15.73244578 4688

Satellite not in orbit

STARLINK-1023